"Pseudo-MPEC" for P10IfyJ

Created 2018 Jul 14 15:18:13 UT using Find_Orb

Click here for an explanation of pseudo-MPECs

 
 Astrometry: 
     P10IfyJ  C2018 07 09AOAstrometryG/Fm=W1EcJpdH';PAk*$wQZ*6uukv*kR/4cTwg$jF51
     P10IfyJ  C2018 07 09_W@[H$_y/s)FsEAnjS\@+k.Hy`i#Y=YSx[W]4g03)=.Q.L*DGiiUF51
     P10IfyJ  C2018 07 09kh;[EqnbPH`e%wF-Y65hBCnLA;p0KaR@vx8k:B9!.rR.?`RP;tr9F51
     P10IfyJ  C2018 07 09iyZ^IEcdw*aOBRjdEEL=wZ67:ih0c:IRm]kp(T[Z^B/ZNyEsDqjvF51
     P10IfyJ  C2018 07 09,'3FpU0YJYfqqWhS1I3pEC*svOlu!\qa=*a3:rGd+3[jI0ULC%q@F51
     P10IfyJ  C2018 07 090jq96l:McUjG=X;5%%@8;w\d-kk*qb%[-vtChiJ+Do,;MHPR'KDBF51
     P10IfyJ  C2018 07 09HZa/KR9vnr1!n`y6Oredacted;IuM(ik*?weDA.FUIU[UI1IACK6F51
     P10IfyJ  C2018 07 09)J2s_l^(]B5-FVomfrHGMK2wm/H]8Lc$E?dkWlOyHdaotVb:)d;VF51
     P10IfyJ KC2018 07 10jNS]]UtP'7T'Wrr4?GhgeO\:_xTh=pE-DRD[.r15/f@85/W6wEVLH21
     P10IfyJ KC2018 07 10[peZJ.Q@S8_\mTe]=+y^Dhm!%j5p\+5pUCGPP_H6u))B@FM@*qbwH21
     P10IfyJ KC2018 07 10MAAMVkca'3qJZ!!sI7HtQH;Ru5\Gw4Ns/UO!?7(RbRgc-:fx=lsHH21
     P10IfyJ KC2018 07 10nhD#7kT%?M4tWimHK0XAMe[9dx`7!.%!seeR\8Cjq,kOO^w!^-Y%474
     P10IfyJ KC2018 07 10ZD;MbmgynvXJN:L+4h#t3RIr)J06)jJ(_wj,ejU;H%i=AoU8YOKe474
     P10IfyJ KC2018 07 10Swn#.*aR.ik+3wJWRe1/wS$yb2lBwE?k'OcY],$B@VGQ.2W@u.MT474
     P10IfyJ KC2018 07 10a5Js'lp2;)9jFM'-QJMaqXp]6j3x=g`,kY4^*npEwcjD6KQBOX)F474
     P10IfyJ KC2018 07 136S^wK%:l?!]xiA(]kN[/rYyCdAsv%sf21m0\L$NkYfCHaL,STgba807
     P10IfyJ KC2018 07 13Id]v:p([MlyKFD*fBSNn_[w\Z8+xu\8kRN3l@+Ek,DPrf)4B[6HX807
     P10IfyJ KC2018 07 13r(qWZF9rlE6@3\:\,$\Ql?Qa3pcEBEy%=mw/8gOKJCD,)f?NEOCP807

Station data:
(474) Mount John Observatory, Lake Tekapo  (S43.987388 E170.464960)  New
   Zealand.  Observers A. C. Gilmore, P. M. Kilmartin. Measurer P. M.
   Kilmartin. 1.0-m f/7.7 reflector + CCD.
(807) Cerro Tololo Observatory, La Serena  (S30.169136 W70.805900)  Chile.
   1.5-m Ritchey-Chrétien.
(F51) Pan-STARRS 1, Haleakala  (N20.707235 W156.255910)  US/Hawaii.
   Observers N. Primak, A. Schultz, S. Watters, J. Thiel, T. Goggia. Measurer
   PS1 Science Consortium. 1.8-m Ritchey-Chrétien + CCD.
(H21) Astronomical Research Observatory, Westfield  (N39.483057 W87.968270)
   US/Illinois. 0.76-m f/3.0 astrograph + CCD.

Orbital elements:  P10IfyJ
   Perihelion 2018 Jul 31.090442 +/- 0.0174 TT =  2:10:14 (JD 2458330.590442)
Epoch 2018 Jul 13.0 TT = JDT 2458312.5   Earth MOID: 0.0794   Ma: 0.0715
M 355.86927 +/- 0.043               (J2000 ecliptic)          AutoNEOCP
n   0.22833765 +/- 0.00221          Peri.  221.45662 +/- 0.012
a   2.65104859 +/- 0.0171           Node    93.80967 +/- 0.012
e   0.5928647 +/- 0.00253           Incl.    4.08256 +/- 0.011
P   4.32                   H 23.7   G  0.15   U  8.6  
q 1.07933538 +/- 0.000253    Q 4.22276179 +/- 0.0343
From 18 observations 2018 July 9-13; mean residual 0".12
Residuals in arcseconds: 
180709 F51  .13+  .03+    180709 F51  .04-  .10+    180710 474  .00   .05-    
180709 F51  .08-  .10+    180709 F51  .27-  .26-    180710 474  .15-  .08-    
180709 F51  .07+  .11-    180710 H21  .12+  .10-    180710 474  .13+  .09+    
180709 F51  .04+  .06+    180710 H21  .02-  .11+    180713 807  .05+  .01+    
180709 F51  .26+  .11+    180710 H21  .17+  .02+    180713 807  .04-  .03+    
180709 F51  .23-  .02+    180710 474  .21-  .04-    180713 807  .01-  .02-    

Ephemerides (geocentric):
Date (UTC) HH   RA              Dec         delta   r     elong  mag " sig PA
---- -- -- --  -------------   -----------  ------ ------ -----  --- ---- ---
2018 07 14 15  23 24 34.956   -18 44 07.01  .13157 1.0995 126.3 21.3  .17  25
2018 07 14 16  23 24 59.804   -18 42 59.63  .13158 1.0994 126.2 21.3  .17  24
2018 07 14 17  23 25 24.632   -18 41 52.09  .13160 1.0993 126.1 21.3  .17  24
2018 07 14 18  23 25 49.442   -18 40 44.39  .13161 1.0992 126.1 21.3  .17  23
2018 07 14 19  23 26 14.232   -18 39 36.54  .13162 1.0991 126.0 21.3  .18  23
2018 07 14 20  23 26 39.003   -18 38 28.52  .13163 1.0990 125.9 21.3  .18  23
2018 07 14 21  23 27 03.754   -18 37 20.34  .13165 1.0989 125.9 21.3  .18  22
2018 07 14 22  23 27 28.485   -18 36 12.01  .13166 1.0988 125.8 21.3  .18  22
2018 07 14 23  23 27 53.196   -18 35 03.52  .13167 1.0987 125.8 21.3  .18  21
2018 07 15 00  23 28 17.888   -18 33 54.88  .13169 1.0986 125.7 21.3  .19  21
2018 07 15 01  23 28 42.559   -18 32 46.08  .13170 1.0985 125.6 21.3  .19  21
2018 07 15 02  23 29 07.210   -18 31 37.13  .13172 1.0984 125.6 21.3  .19  20
2018 07 15 03  23 29 31.841   -18 30 28.03  .13173 1.0983 125.5 21.3  .19  20
2018 07 15 04  23 29 56.451   -18 29 18.77  .13175 1.0982 125.5 21.3  .19  19
2018 07 15 05  23 30 21.041   -18 28 09.37  .13177 1.0981 125.4 21.3  .20  19
2018 07 15 06  23 30 45.609   -18 26 59.81  .13178 1.0980 125.3 21.3  .20  19
2018 07 15 07  23 31 10.157   -18 25 50.11  .13180 1.0979 125.3 21.3  .20  18
2018 07 15 08  23 31 34.683   -18 24 40.26  .13182 1.0978 125.2 21.3  .20  18
2018 07 15 09  23 31 59.188   -18 23 30.26  .13184 1.0977 125.1 21.3  .20  18
2018 07 15 10  23 32 23.672   -18 22 20.12  .13185 1.0976 125.1 21.3  .21  17
2018 07 15 11  23 32 48.134   -18 21 09.84  .13187 1.0975 125.0 21.3  .21  17
2018 07 15 12  23 33 12.575   -18 19 59.41  .13189 1.0974 125.0 21.3  .21  16
2018 07 15 13  23 33 36.994   -18 18 48.84  .13191 1.0973 124.9 21.3  .21  16
2018 07 15 14  23 34 01.391   -18 17 38.12  .13193 1.0972 124.8 21.3  .21  16
2018 07 15 15  23 34 25.765   -18 16 27.27  .13195 1.0971 124.8 21.3  .21  15
2018 07 15 16  23 34 50.118   -18 15 16.28  .13197 1.0970 124.7 21.3  .22  15
2018 07 15 17  23 35 14.448   -18 14 05.14  .13199 1.0969 124.7 21.3  .22  14
2018 07 15 18  23 35 38.756   -18 12 53.88  .13202 1.0968 124.6 21.3  .22  14
2018 07 15 19  23 36 03.041   -18 11 42.47  .13204 1.0967 124.5 21.3  .22  14
2018 07 15 20  23 36 27.304   -18 10 30.93  .13206 1.0966 124.5 21.4  .22  13
2018 07 15 21  23 36 51.544   -18 09 19.26  .13208 1.0966 124.4 21.4  .23  13
2018 07 15 22  23 37 15.760   -18 08 07.45  .13211 1.0965 124.4 21.4  .23  12
2018 07 15 23  23 37 39.954   -18 06 55.51  .13213 1.0964 124.3 21.4  .23  12
2018 07 16 00  23 38 04.125   -18 05 43.43  .13215 1.0963 124.2 21.4  .23  12
2018 07 16 01  23 38 28.272   -18 04 31.23  .13218 1.0962 124.2 21.4  .23  11
2018 07 16 02  23 38 52.396   -18 03 18.90  .13220 1.0961 124.1 21.4  .23  11
2018 07 16 03  23 39 16.496   -18 02 06.44  .13223 1.0960 124.1 21.4  .24  10
2018 07 16 04  23 39 40.572   -18 00 53.85  .13225 1.0959 124.0 21.4  .24  10
2018 07 16 05  23 40 04.625   -17 59 41.14  .13228 1.0958 123.9 21.4  .24   9
2018 07 16 06  23 40 28.653   -17 58 28.30  .13231 1.0957 123.9 21.4  .24   9
2018 07 16 07  23 40 52.658   -17 57 15.34  .13233 1.0956 123.8 21.4  .24   9
2018 07 16 08  23 41 16.638   -17 56 02.25  .13236 1.0955 123.8 21.4  .25   8
2018 07 16 09  23 41 40.595   -17 54 49.04  .13239 1.0955 123.7 21.4  .25   8
2018 07 16 10  23 42 04.526   -17 53 35.71  .13242 1.0954 123.7 21.4  .25   7
2018 07 16 11  23 42 28.433   -17 52 22.26  .13244 1.0953 123.6 21.4  .25   7
2018 07 16 12  23 42 52.316   -17 51 08.70  .13247 1.0952 123.5 21.4  .25   6
2018 07 16 13  23 43 16.174   -17 49 55.01  .13250 1.0951 123.5 21.4  .25   6
2018 07 16 14  23 43 40.007   -17 48 41.21  .13253 1.0950 123.4 21.4  .26   6